Time,TemperatureF,DewpointF,PressureIn,WindDirection,WindDirectionDegrees,WindSpeedMPH,WindSpeedGustMPH,Humidity,HourlyPrecipIn,Conditions,Clouds,dailyrainin,SoftwareType,DateUTC
2013-03-04 00:00:00,35.0,-99.9,-100.00,ENE,76,3.0,-999.0,-999,-99.99,,,-99.99,,2013-03-04 08:00:00,
2013-03-04 00:53:00,35.0,-99.9,-100.00,ENE,76,3.0,-999.0,-999,-99.99,,,-99.99,,2013-03-04 08:53:00,
2013-03-04 01:00:00,33.0,-99.9,-100.00,ENE,74,3.0,-999.0,-999,-99.99,,,-99.99,,2013-03-04 09:00:00,
2013-03-04 02:00:00,32.0,-99.9,-100.00,ENE,61,5.0,-999.0,-999,-99.99,,,-99.99,,2013-03-04 10:00:00,
2013-03-04 03:00:00,32.0,-99.9,-100.00,NE,47,7.0,-999.0,-999,-99.99,,,-99.99,,2013-03-04 11:00:00,
2013-03-04 03:52:00,32.0,-99.9,-100.00,NE,47,7.0,-999.0,-999,-99.99,,,-99.99,,2013-03-04 11:52:00,
2013-03-04 04:00:00,33.0,-99.9,-100.00,NE,56,5.0,-999.0,-999,-99.99,,,-99.99,,2013-03-04 12:00:00,
2013-03-04 05:00:00,32.0,-99.9,-100.00,NE,53,5.0,-999.0,-999,-99.99,,,-99.99,,2013-03-04 13:00:00,
2013-03-04 06:00:00,32.0,-99.9,-100.00,NNE,16,3.0,-999.0,-999,-99.99,,,-99.99,,2013-03-04 14:00:00,
2013-03-04 07:00:00,31.0,-99.9,-100.00,NNE,32,3.0,-999.0,-999,-99.99,,,-99.99,,2013-03-04 15:00:00,
2013-03-04 08:00:00,32.0,-99.9,-100.00,NNE,25,2.0,-999.0,-999,-99.99,,,-99.99,,2013-03-04 16:00:00,
2013-03-04 09:00:00,36.0,-99.9,-100.00,NE,40,2.0,-999.0,-999,-99.99,,,-99.99,,2013-03-04 17:00:00,
2013-03-04 10:00:00,42.0,-99.9,-100.00,WNW,303,3.0,-999.0,-999,-99.99,,,-99.99,,2013-03-04 18:00:00,
2013-03-04 10:53:00,42.0,-99.9,-100.00,WNW,303,3.0,-999.0,-999,-99.99,,,-99.99,,2013-03-04 18:53:00,
2013-03-04 11:00:00,45.0,-99.9,-100.00,WSW,243,5.0,-999.0,-999,-99.99,,,-99.99,,2013-03-04 19:00:00,
2013-03-04 12:00:00,47.0,-99.9,-100.00,SW,223,6.0,-999.0,-999,-99.99,,,-99.99,,2013-03-04 20:00:00,
2013-03-04 13:00:00,51.0,-99.9,-100.00,SW,219,5.0,-999.0,-999,-99.99,,,-99.99,,2013-03-04 21:00:00,
2013-03-04 14:00:00,54.0,-99.9,-100.00,West,266,3.0,-999.0,-999,-99.99,,,-99.99,,2013-03-04 22:00:00,
2013-03-04 14:52:00,54.0,-99.9,-100.00,West,266,3.0,-999.0,-999,-99.99,,,-99.99,,2013-03-04 22:52:00,
2013-03-04 15:00:00,56.0,-99.9,-100.00,NNW,342,2.0,-999.0,-999,-99.99,,,-99.99,,2013-03-04 23:00:00,
2013-03-04 16:00:00,57.0,-99.9,-100.00,WNW,288,5.0,-999.0,-999,-99.99,,,-99.99,,2013-03-05 00:00:00,
2013-03-04 17:00:00,56.0,-99.9,-100.00,WNW,296,3.0,-999.0,-999,-99.99,,,-99.99,,2013-03-05 01:00:00,
2013-03-04 18:00:00,54.0,-99.9,-100.00,WSW,255,3.0,-999.0,-999,-99.99,,,-99.99,,2013-03-05 02:00:00,
2013-03-04 19:00:00,51.0,-99.9,-100.00,West,264,3.0,-999.0,-999,-99.99,,,-99.99,,2013-03-05 03:00:00,
2013-03-04 20:00:00,50.0,-99.9,-100.00,SE,137,3.0,-999.0,-999,-99.99,,,-99.99,,2013-03-05 04:00:00,
2013-03-04 21:00:00,47.0,-99.9,-100.00,ESE,111,2.0,-999.0,-999,-99.99,,,-99.99,,2013-03-05 05:00:00,
2013-03-04 22:00:00,45.0,-99.9,-100.00,West,268,2.0,-999.0,-999,-99.99,,,-99.99,,2013-03-05 06:00:00,
2013-03-04 22:52:00,45.0,-99.9,-100.00,West,268,2.0,-999.0,-999,-99.99,,,-99.99,,2013-03-05 06:52:00,
2013-03-04 23:00:00,42.0,-99.9,-100.00,SSE,167,5.0,-999.0,-999,-99.99,,,-99.99,,2013-03-05 07:00:00,
2013-03-04 23:52:00,42.0,-99.9,-100.00,SSE,167,5.0,-999.0,-999,-99.99,,,-99.99,,2013-03-05 07:52:00,